This is the latest recevied weather packets stored in our database for station/object W1HVD. If no packets are shown the sender has not sent any weather packets the latest 10 day(s).
| Time | Temp. | Humidity | Pressure | Rain* | Wind** | Luminosity | Snow |
|---|---|---|---|---|---|---|---|
| 1777595705 | 11.11° C | 94% | 1006.5 hPa | 0 mm | - | 0 W/m² | - |
| 1777595401 | 11.11° C | 94% | 1006.4 hPa | 0 mm | - | 0 W/m² | - |
| 1777595097 | 11.11° C | 94% | 1006.2 hPa | 0 mm | - | 0 W/m² | - |
| 1777594793 | 11.11° C | 94% | 1006.3 hPa | 0 mm | - | 0 W/m² | - |
| 1777594490 | 11.67° C | 93% | 1006.4 hPa | 0 mm | - | 0 W/m² | - |
| 1777594185 | 11.67° C | 93% | 1006.3 hPa | 0 mm | - | 0 W/m² | - |
| 1777593881 | 11.67° C | 93% | 1006.4 hPa | 0 mm | - | 0 W/m² | - |
| 1777593578 | 11.67° C | 92% | 1006.3 hPa | 0 mm | - | 0 W/m² | - |
| 1777593278 | 11.67° C | 92% | 1006.3 hPa | 0 mm | - | 0 W/m² | - |
| 1777592973 | 11.67° C | 92% | 1006.2 hPa | 0 mm | - | 0 W/m² | - |
| 1777592668 | 11.67° C | 92% | 1006.2 hPa | 0 mm | - | 1 W/m² | - |
| 1777592364 | 11.67° C | 91% | 1006.1 hPa | 0 mm | - | 1 W/m² | - |
| 1777592060 | 11.67° C | 91% | 1006.2 hPa | 0 mm | - | 2 W/m² | - |
| 1777591758 | 11.67° C | 91% | 1006.1 hPa | 0 mm | - | 3 W/m² | - |
| 1777591453 | 11.67° C | 90% | 1006 hPa | 0 mm | - | 6 W/m² | - |
| 1777591149 | 11.67° C | 90% | 1006.2 hPa | 0 mm | - | 7 W/m² | - |
| 1777590844 | 11.67° C | 90% | 1006.1 hPa | 0 mm | - | 11 W/m² | - |
| 1777590541 | 11.67° C | 91% | 1006 hPa | 0 mm | - | 14 W/m² | - |
| 1777590235 | 12.22° C | 90% | 1006 hPa | 0 mm | - | 19 W/m² | - |
| 1777589934 | 11.67° C | 89% | 1005.9 hPa | 0 mm | - | 22 W/m² | - |
| 1777589630 | 11.67° C | 89% | 1005.9 hPa | 0 mm | - | 28 W/m² | - |
| 1777589327 | 11.67° C | 89% | 1005.9 hPa | 0 mm | - | 9 W/m² | - |
| 1777589025 | 12.22° C | 89% | 1005.7 hPa | 0 mm | - | 10 W/m² | - |
| 1777588721 | 12.22° C | 89% | 1005.7 hPa | 0 mm | - | 15 W/m² | - |
| 1777588416 | 12.22° C | 88% | 1005.8 hPa | 0 mm | - | 15 W/m² | - |
* Rain latest hour (hover to see other rain measurements)
** Current wind speed in m/s (hover to see current wind gust speed)